Flag for Chad Weather past 2 weeks in Ndjamena, Chad

Now
75 °F

Clear.


Feels Like: 75 °F
Forecast: 71 / 85 °F
Wind: 6 mph from Southwest

Location: Ndjamena

Current Time: Aug 30, 2014 at 1:47:19 AM

Latest Report: Aug 30, 2014 at 12:00 AM


Visibility: 10 mi

Pressure: 29.80 "Hg

Humidity: 89%

Dew point: 72 °F

Location of NdjamenaLocation

Historic Weather in Ndjamena — Graph

°F

Ndjamena temperature yesterday

Maximum temperature yesterday: 91 °F (at 1:00 PM)
Minimum temperature yesterday: 72 °F (at 6:00 PM)
Average temperature yesterday: 82 °F

Past Weeks' High & Low Weather Summary

 TemperatureHumidityPressure
High95 °F (Aug 28, 3:00 PM)100% (Aug 15, 3:00 PM)30.01 "Hg (Aug 15, 3:00 PM)
Low72 °F (Aug 16, 5:00 AM)49% (Aug 24, 6:00 PM)29.71 "Hg (Aug 28, 6:00 PM)
Average80 °F81%29.87 "Hg
* Reported Midnight between Aug 14 and Aug 15 — Midnight between Aug 29 and Aug 30, Ndjamena, Weather by CustomWeather, © 2014

Note: Actual official high and low records may vary slightly from our data, if they occured in-between our weather recording intervals... More about our weather records

Advertising

Ndjamena weather history for previous 24 hours

 ConditionsComfort  
Time TempWeatherWind HumidityBarometerVisibility
12:00 AM
Aug 30
75 °FClear.6 mph89%29.80 "Hg10 mi
11:00 PM
Aug 29
73 °FPassing clouds.7 mph89%29.86 "HgN/A
10:00 PM73 °FThunderstorms. Passing clouds.5 mph89%29.92 "HgN/A
8:00 PM72 °FThunderstorms. Passing clouds.No wind94%29.92 "HgN/A
7:00 PM72 °FThunderstorms. Mostly cloudy.10 mph94%29.89 "Hg5 mi
6:00 PM72 °FThunderstorms. More clouds than sun.22 mph73%29.86 "Hg3 mi
5:00 PM81 °FThunderstorms. Sandstorm.9 mph66%29.83 "Hg2 mi
4:00 PM88 °FThunderstorms. Scattered clouds.6 mph66%29.74 "Hg5 mi
3:00 PM91 °FThunderstorms. Partly sunny.13 mph63%29.71 "HgN/A
2:00 PM91 °FPartly sunny.12 mph67%29.77 "HgN/A
1:00 PM91 °FPartly sunny.8 mph71%29.80 "HgN/A
12:00 PM90 °FScattered clouds.7 mph71%29.83 "HgN/A
11:00 AM88 °FScattered clouds.8 mph79%29.83 "HgN/A
10:00 AM88 °FPassing clouds.8 mph79%29.83 "HgN/A
9:00 AM86 °FSunny.10 mph79%29.80 "Hg10 mi
8:00 AM81 °FSunny.7 mph89%29.80 "Hg10 mi
7:00 AM79 °FSunny.8 mph74%29.77 "Hg10 mi
6:00 AM79 °FSunny.10 mph74%29.77 "Hg10 mi
5:00 AM79 °FClear.7 mph74%29.77 "Hg10 mi
4:00 AM79 °FPassing clouds.6 mph79%29.77 "HgN/A
3:00 AM81 °FClear.7 mph74%29.77 "Hg10 mi
2:00 AM81 °FClear.5 mph74%29.77 "Hg10 mi
1:00 AM82 °FClear.5 mph79%29.77 "Hg10 mi
Weather by CustomWeather, © 2014

See weather overviewHow to use our weather pages